Location: Unspecified
(22.6800°N, 112.2000°E)
Time: 10:51:51
(UTC+08:00)

S-56A Canister/Altair - Pass Details

Date: 01 August 2021
Orbit: 632 x 2500 km, 38.9° (Epoch: 27 September)

Event Time Altitude Azimuth Distance (km) Brightness Sun altitude
Rises 21:32:30 0° 303° (WNW) 6,134 13.3 -29.3°
Reaches altitude 10° 21:36:43 10° 303° (WNW) 5,025 12.6 -30.0°
Maximum altitude 21:50:51 87° 217° (SW) 1,938 9.3 -32.5°
Enters shadow 21:53:08 64° 134° (SE) 1,983 9.1 -32.9°
Drops below altitude 10° 22:00:35 10° 128° (SE) 3,587 - -34.2°
Sets 22:03:06 0° 128° (SE) 4,345 - -34.6°
